Weather in Botsiy

Russia / Republic of Buryatia     50°28′10″N   105°38′48″E
temp.,
°C
wind,
m/s
gust,
m/s
humid.,
%
clouds,
%
prec.,
mm/h
press.,
hPa
HPBL,
m
8 may, sat
sat823:00+4sse1154100 0.0 101410
02:00+3s0157100 0.0 101310
05:00+2se116157 0.0 101210
08:00+5se1250100 0.0 1012370
11:00+6nne2252100 0.1 10121056
14:00+8n2350100 0.1 10111020
17:00+10nw234997 0.0 10101281
20:00+9nne115928 0.0 101015
9 may, sun
sun923:00+6nw117052 0.0 101312
02:00+4nw117450 0.0 101310
05:00+4sw117285 0.0 101410
08:00+7s11595 0.0 1013340
11:00+12wsw244417 0.0 10101441
14:00+15nw243232 0.0 10072216
17:00+14sw224359 0.3 10061096
20:00+12s1159100 0.4 100616
10 may, mon
mon1023:00+9ssw2271100 0.0 100613
02:00+8nne2373100 0.1 100649
05:00+5n3877100 0.0 1010567
08:00+6nne3668100 0.0 1011815
11:00+8nne4551100 0.1 10111599
14:00+7n4671100 1.6 10121046
17:00+8nne4547100 0.3 10121559
20:00+7n23525 0.3 101381
11 may, tue
tue1123:00+5wnw4861100 0.0 1014248
02:00+3w476917 0.0 1014158
05:00+2w227551 0.0 101425
08:00+5wnw245927 0.0 1014497
11:00+9nnw594298 0.0 10132060
14:00+11nnw9103596 0.0 10132004
17:00+11nnw783816 0.0 10131669
20:00+8nne23480 0.0 101449
12 may, wed
wed1223:00+5ssw11580 0.0 101510
02:00+3sw11650 0.0 101510
05:00+2s11740 0.0 101411
08:00+6ssw12608 0.0 1011416
11:00+11wsw13395 0.0 10071102
14:00+15nne232817 0.0 10041824
17:00+16nne642963 0.0 10021408
20:00+11nne8105036 0.0 1005901